Location: Launois
(49.6535°N, 4.5395°E)
Time: 19:55:20
(UTC+00:00)

Nadezhda 1 Rocket - Pass Details

Date: 23 May 2024
Orbit: 941 x 1004 km, 83.0° (Epoch: 14 June)

Event Time Altitude Azimuth Distance (km) Brightness Sun altitude
Rises 01:04:29 0° 350° (N) 3,743 8.1 -17.2°
Reaches altitude 10° 01:07:01 10° 351° (N) 2,790 7.3 -17.0°
Maximum altitude 01:13:28 90° 71° (ENE) 1,010 4.0 -16.6°
Enters shadow 01:18:18 19° 172° (S) 2,198 5.4 -16.3°
